Weather History for Sierra Vista, AZ

Change the Weather History Date:

Wednesday, October 10, 2012

  Actual Average Record
Temperature  
Mean Temperature 68 °F -  
Max Temperature 82 °F 80 °F 96 °F (1983)
Min Temperature 55 °F 57 °F 41 °F (1982)
Cooling Degree Days 4    
Growing Degree Days 18 (Base 50)    
Moisture  
Dew Point 37 °F    
Average Humidity 32    
Maximum Humidity 47    
Minimum Humidity 18    
Precipitation  
Precipitation 0.00 in - - ()
Sea Level Pressure  
Sea Level Pressure 29.93 in    
Wind  
Wind Speed 5 mph (South)    
Max Wind Speed 15 mph    
Max Gust Speed 26 mph    
Visibility 10 miles    
Events      
Averages and records for this station are not official NWS values.
T = Trace of Precipitation, MM = Missing Value Source: NWS Daily Summary

Daily Weather History Graph

Daily Weather History Graph

Search for Another Location

Airport:

Trip Planner

Search our weather history database for the weather conditions in past years. The results will help you decide how hot, cold, wet, or windy it might be!

Date:

Astronomy

Oct. 10, 2012 Rise Set
Actual Time 6:21 AM MST 5:54 PM MST
Civil Twilight 5:57 AM MST 6:18 PM MST
Nautical Twilight 5:28 AM MST 6:47 PM MST
Astronomical Twilight 5:00 AM MST 7:15 PM MST
Moon 1:19 AM MST (10/10) 2:43 PM MST (10/10)
Length of Visible Light 12h 21m
Length of Day
11h 33m
Waning Crescent, 26% of the Moon is Illuminated
Oct 10
Waning Crescent
Oct 15
New
Oct 21
First Quarter
Oct 29
Full
Nov 6
Last Quarter

Hourly Weather History & Observations

Time (MST) Temp. Dew Point Humidity Pressure Visibility Wind Dir Wind Speed Gust Speed Precip Events Conditions
12:56 AM 63.0 °F 33.1 °F 33% 29.97 in 10.0 mi Calm Calm - N/A   Clear
1:56 AM 59.0 °F 34.0 °F 39% 29.98 in 10.0 mi Calm Calm - N/A   Clear
2:56 AM 59.0 °F 35.1 °F 41% 29.96 in 10.0 mi Calm Calm - N/A   Clear
3:56 AM 57.0 °F 36.0 °F 45% 29.97 in 10.0 mi WSW 5.8 mph - N/A   Clear
4:56 AM 57.0 °F 36.0 °F 45% 29.98 in 10.0 mi SW 5.8 mph - N/A   Clear
5:55 AM 55.4 °F 35.6 °F 47% 30.00 in 10.0 mi Calm Calm - N/A   Clear
6:55 AM 57.2 °F 35.6 °F 44% 30.00 in 10.0 mi Calm Calm - N/A   Clear
7:55 AM 64.4 °F 37.4 °F 37% 30.01 in 10.0 mi Calm Calm - N/A   Clear
9:55 AM 73.4 °F 39.2 °F 29% 29.99 in 10.0 mi East 15.0 mph 26.5 mph N/A   Partly Cloudy
10:55 AM 77.0 °F 37.4 °F 24% 29.96 in 10.0 mi ESE 15.0 mph 19.6 mph N/A   Partly Cloudy
11:55 AM 78.8 °F 37.4 °F 23% 29.94 in 10.0 mi East 6.9 mph - N/A   Partly Cloudy
12:55 PM 80.6 °F 42.8 °F 26% 29.90 in 10.0 mi South 8.1 mph - N/A   Partly Cloudy
1:55 PM 82.4 °F 39.2 °F 21% 29.87 in 10.0 mi SSE 8.1 mph - N/A   Partly Cloudy
2:55 PM 82.4 °F 39.2 °F 21% 29.86 in 10.0 mi South 9.2 mph - N/A   Partly Cloudy
3:55 PM 82.4 °F 37.4 °F 20% 29.86 in 10.0 mi South 10.4 mph - N/A   Partly Cloudy
4:55 PM 80.6 °F 33.8 °F 18% 29.87 in 10.0 mi South 10.4 mph - N/A   Partly Cloudy
5:55 PM 75.2 °F 32.0 °F 21% 29.90 in 10.0 mi SW 8.1 mph - N/A   Partly Cloudy
6:55 PM 71.6 °F 33.8 °F 25% 29.91 in 10.0 mi SW 10.4 mph - N/A   Partly Cloudy
7:55 PM 71.6 °F 39.2 °F 31% 29.90 in 10.0 mi SSW 12.7 mph - N/A   Partly Cloudy
8:55 PM 69.8 °F 39.2 °F 33% 29.91 in 10.0 mi SW 12.7 mph - N/A   Clear
9:55 PM 66.2 °F 39.2 °F 37% 29.92 in 10.0 mi SSW 8.1 mph - N/A   Clear
10:55 PM 62.6 °F 39.2 °F 42% 29.92 in 10.0 mi East 5.8 mph - N/A   Clear
11:56 PM 63.0 °F 39.0 °F 41% 29.90 in 10.0 mi East 3.5 mph - N/A   Clear